Location: Eaton
(41.3139°N, 82.0207°W)
Time: 13:17:30
(UTC+00:00)

Meteor 1-16 Rocket - Pass Details

Date: 17 June 2021
Orbit: 790 x 908 km, 81.2° (Epoch: 31 July)

Event Time Altitude Azimuth Distance (km) Brightness Sun altitude
Rises 02:56:16 0° 350° (N) 3,386 8.5 -16.3°
Reaches altitude 10° 02:58:43 10° 350° (N) 2,431 7.6 -16.5°
Maximum altitude 03:04:13 88° 262° (W) 814 4.1 -17.1°
Enters shadow 03:07:19 26° 173° (S) 1,525 5.0 -17.4°
